User: anonymous   Login
Location: Muenchen
(48.1800°N, 11.5800°E)
Time: 20:56:49
(UTC+01:00)
Language:

Iridium 73 - Orbit

View from above orbital plane
View from above orbital plane
View from above satellite
View from above satellite

Ground track
Ground track

The orbit data is extracted from the following two-line orbital elements,

1 25344U 98032C   14304.37505387  .00000765  00000-0  19890-3 0  8874
2 25344 086.4439 248.3972 0002639 086.8601 025.8711 14.48435096868581
Epoch (UTC): 31 October 2014 09:00:04
Eccentricity: 0.0002639
inclination: 86.4439°
perigee height: 729 km
apogee height: 732 km
right ascension of ascending node: 248.3972°
argument of perigee: 86.8601°
revolutions per day: 14.48435096
mean anomaly at epoch: 25.8711°
orbit number at epoch: 86858

The dashed part of the orbit path shows where the satellite is in the earth's shadow,  

DLR